Location: Cutler
(25.6150°N, 80.3110°W)
Time: 11:57:18
(UTC-05:00)

Tiangong 2 - Pass Details

Date: 17 November 2017
Orbit: 386 x 392 km, 42.8° (Epoch: 22 November)

Event Time Altitude Azimuth Distance (km) Brightness Sun altitude
Rises 18:16:54 0° 285° (WNW) 2,265 6.1 -10.4°
Reaches altitude 10° 18:19:39 10° 259° (W) 1,407 5.5 -11.0°
Maximum altitude 18:21:27 14° 225° (SW) 1,180 4.5 -11.4°
Drops below altitude 10° 18:23:14 10° 190° (S) 1,401 4.2 -11.8°
Sets 18:25:59 0° 164° (SSE) 2,250 5.0 -12.4°
